Flag for Germany Weather past 2 weeks in Potsdam, Brandenburg, Germany

Now
53 °F

Clear.


Feels Like: 52 °F
Forecast: 51 / 65 °F
Wind: 6 mph from Northeast

Location: Potsdam


UV Index: 0 (Low)

Visibility: 11 mi


Pressure: 29.94 "Hg

Humidity: 84%

Dew point: 49 °F

Location of PotsdamLocation

Historic Weather in Potsdam

°F

Potsdam temperature yesterday

Maximum temperature yesterday: 71 °F (at 4:00 PM)
Minimum temperature yesterday: 38 °F (at 6:00 AM)
Average temperature yesterday: 53 °F

Past Weeks' High & Low Weather Summary

 TemperatureHumidityPressure
High71 °F (Apr 19, 4:00 PM)99% (Apr 12, 4:00 AM)30.46 "Hg (Apr 12, 4:00 AM)
Low34 °F (Apr 16, 6:00 AM)27% (Apr 16, 3:00 PM)29.71 "Hg (Apr 14, 12:00 PM)
Average50 °F73%30.03 "Hg
* Reported Apr 5 2:00 AM — Apr 20 2:00 AM, Potsdam, Weather by CustomWeather, © 2014

Note: Actual official high and low records may vary slightly from our data, if they occured in-between our weather recording intervals... More about our weather records

Advertising

Historic Weather Conditions — Data for Previous 24 hours

 ConditionsComfort  
Time TempWeatherWind HumidityBarometerVisibility
2:00 AM
Apr 20
54 °FClear.5 mph83%29.95 "Hg11 mi
1:00 AM54 °FClear.6 mph84%29.96 "Hg9 mi
12:00 AM56 °FPassing clouds.6 mph81%29.97 "Hg9 mi
11:00 PM
Apr 19
57 °FPassing clouds.5 mph80%29.98 "Hg9 mi
10:00 PM59 °FPassing clouds.5 mph76%29.98 "Hg11 mi
9:00 PM61 °FPassing clouds.6 mph73%29.98 "Hg9 mi
8:00 PM64 °FPassing clouds.5 mph66%29.97 "Hg14 mi
7:00 PM67 °FScattered clouds.6 mph58%29.96 "Hg19 mi
6:00 PM69 °FScattered clouds.5 mph51%29.97 "Hg18 mi
5:00 PM70 °FScattered clouds.7 mph49%29.98 "Hg19 mi
4:00 PM71 °FPassing clouds.6 mph49%29.99 "Hg19 mi
3:00 PM68 °FPassing clouds.7 mph52%30.02 "Hg19 mi
2:00 PM67 °FPassing clouds.5 mph58%30.04 "Hg19 mi
1:00 PM61 °FPassing clouds.5 mph64%30.06 "Hg19 mi
12:00 PM56 °FPassing clouds.5 mph69%30.08 "Hg18 mi
11:00 AM49 °FScattered clouds.5 mph79%30.09 "Hg11 mi
10:00 AM44 °FOvercast.3 mph90%30.11 "Hg5 mi
9:00 AM42 °FOvercast.3 mph97%30.11 "Hg5 mi
8:00 AM40 °FPartly sunny.3 mph98%30.09 "Hg6 mi
7:00 AM38 °FPassing clouds.3 mph98%30.09 "Hg11 mi
6:00 AM38 °FPassing clouds.3 mph98%30.08 "Hg22 mi
5:00 AM39 °FClear.3 mph98%30.08 "Hg25 mi
4:00 AM40 °FClear.5 mph98%30.07 "Hg25 mi
3:00 AM40 °FClear.5 mph97%30.05 "Hg28 mi
Weather by CustomWeather, © 2014

See weather overview